EW2927 Weather Reports


Display with metric or nautical units.
time (UTC)temp
F
wind
direction
speed
MPH
gust
MPH
rain 1hr
in
rain 24hr
in
rain mn
in
humidity
%
barometer
mb
20221004012047 65 315 1.0 2.0 0.00 0.00 0.00 84 1017.4
20221004011144 65 315 1.0 2.0 0.00 0.00 0.00 82 1017.3
20221004010244 66 313 1.0 2.0 0.00 0.00 0.00 81 1017.3
20221004003543 66 300 0.0 3.0 0.00 0.00 0.00 79 1017.2
20221004000843 68 299 0.0 2.0 0.00 0.00 0.00 78 1017.0
20221003235943 68 273 0.0 2.0 0.00 0.00 0.00 76 1017.0
20221003235042 69 266 0.0 1.0 0.00 0.00 0.00 74 1016.9
20221003234143 70 266 0.0 1.0 0.00 0.00 0.00 73 1016.9
20221003233242 71 266 0.0 2.0 0.00 0.00 0.00 71 1016.9
20221003232343 72 266 0.0 1.0 0.00 0.00 0.00 69 1016.9
20221003231442 72 269 0.0 1.0 0.00 0.00 0.00 67 1016.8
20221003224741 75 309 1.0 5.0 0.00 0.00 0.00 61 1016.8
20221003223842 76 323 2.0 5.0 0.00 0.00 0.00 61 1016.8
20221003222040 79 338 1.0 5.0 0.00 0.00 0.00 56 1016.7
20221003221140 79 327 1.0 5.0 0.00 0.00 0.00 56 1016.6
20221003220241 79 337 2.0 10.0 0.00 0.00 0.00 55 1016.6
20221003215340 80 6 2.0 6.0 0.00 0.00 0.00 54 1016.6
20221003214439 80 344 2.0 7.0 0.00 0.00 0.00 55 1016.5
20221003213539 80 309 3.0 9.0 0.00 0.00 0.00 53 1016.5
20221003212641 79 291 2.0 5.0 0.00 0.00 0.00 56 1016.6
20221003211739 78 319 3.0 9.0 0.00 0.00 0.00 58 1016.6
20221003210839 78 14 2.0 7.0 0.00 0.00 0.00 56 1016.5
20221003205939 78 339 2.0 8.0 0.00 0.00 0.00 56 1016.6
20221003205038 79 319 3.0 8.0 0.00 0.00 0.00 54 1016.5
20221003204138 79 323 3.0 5.0 0.00 0.00 0.00 56 1016.5
20221003203239 78 300 1.0 8.0 0.00 0.00 0.00 58 1016.5
20221003200537 78 293 2.0 6.0 0.00 0.00 0.00 59 1016.7
20221003194737 79 288 2.0 6.0 0.00 0.00 0.00 55 1016.7
20221003193836 80 337 3.0 9.0 0.00 0.00 0.00 54 1016.8
20221003192936 81 312 3.0 7.0 0.00 0.00 0.00 53 1016.8
20221003192036 80 305 3.0 12.0 0.00 0.00 0.00 53 1017.0
20221003190236 79 299 3.0 7.0 0.00 0.00 0.00 55 1017.1
20221003185335 79 193 2.0 7.0 0.00 0.00 0.00 54 1017.2
20221003184436 79 331 1.0 4.0 0.00 0.00 0.00 57 1017.4
20221003183535 78 299 2.0 7.0 0.00 0.00 0.00 54 1017.6
20221003182635 79 90 2.0 8.0 0.00 0.00 0.00 56 1017.7
20221003181736 78 8 3.0 7.0 0.00 0.00 0.00 55 1017.9
20221003180834 78 351 2.0 7.0 0.00 0.00 0.00 55 1018.1
20221003175035 78 303 2.0 8.0 0.00 0.00 0.00 55 1018.3
20221003174134 77 341 2.0 9.0 0.00 0.00 0.00 59 1018.5
20221003173233 77 99 3.0 6.0 0.00 0.00 0.00 61 1018.6
20221003171434 76 135 3.0 8.0 0.00 0.00 0.00 58 1018.7
20221003164734 75 19 3.0 8.0 0.00 0.00 0.00 62 1019.0
20221003163833 74 112 3.0 8.0 0.00 0.00 0.00 61 1019.0
20221003155331 73 27 3.0 7.0 0.00 0.00 0.00 61 1019.4
20221003154431 73 39 3.0 6.0 0.00 0.00 0.00 63 1019.5
20221003152631 73 37 3.0 9.0 0.00 0.00 0.00 64 1019.6
20221003150831 72 90 4.0 9.0 0.00 0.00 0.00 67 1019.5
20221003145931 71 91 4.0 11.0 0.00 0.00 0.00 67 1019.6
20221003145031 70 88 4.0 9.0 0.00 0.00 0.00 67 1019.5
20221003143230 68 60 3.0 10.0 0.00 0.00 0.00 71 1019.4
20221003142329 68 95 4.0 9.0 0.00 0.00 0.00 72 1019.3
20221003141429 67 80 3.0 10.0 0.00 0.00 0.00 73 1019.3
20221003140530 66 81 3.0 11.0 0.00 0.00 0.00 74 1019.3
20221003134728 64 72 3.0 10.0 0.00 0.00 0.00 80 1019.2
20221003132929 63 35 2.0 8.0 0.00 0.00 0.00 83 1019.0
20221003131127 61 46 1.0 7.0 0.00 0.00 0.00 87 1019.1
20221003130228 59 51 1.0 4.0 0.00 0.00 0.00 88 1019.0
20221003125327 57 46 1.0 8.0 0.00 0.00 0.00 92 1018.9
20221003124427 56 22 1.0 3.0 0.00 0.00 0.00 94 1018.8
20221003123527 55 13 1.0 3.0 0.00 0.00 0.00 94 1018.7
20221003122627 55 10 0.0 3.0 0.00 0.00 0.00 94 1018.6
20221003121726 55 359 1.0 3.0 0.00 0.00 0.00 94 1018.6
20221003120826 55 354 1.0 2.0 0.00 0.00 0.00 94 1018.5
20221003115926 55 307 1.0 4.0 0.00 0.00 0.00 94 1018.4
20221003115027 54 326 0.0 2.0 0.00 0.00 0.00 94 1018.3
20221003113225 55 330 0.0 2.0 0.00 0.00 0.00 93 1018.2
20221003112326 55 330 0.0 2.0 0.00 0.00 0.00 93 1018.1
20221003111425 55 329 1.0 4.0 0.00 0.00 0.00 93 1018.1
20221003110525 55 329 1.0 3.0 0.00 0.00 0.00 93 1018.0
20221003105624 55 321 0.0 2.0 0.00 0.00 0.00 93 1017.9
20221003104725 55 320 0.0 1.0 0.00 0.00 0.00 93 1017.8
20221003103824 55 321 1.0 2.0 0.00 0.00 0.00 93 1017.7
20221003102924 55 321 0.0 2.0 0.00 0.00 0.00 93 1017.7
20221003102024 55 338 0.0 3.0 0.00 0.00 0.00 92 1017.7
20221003101124 55 346 0.0 2.0 0.00 0.00 0.00 92 1017.5
20221003100223 55 336 1.0 4.0 0.00 0.00 0.00 92 1017.4
20221003095324 55 291 0.0 4.0 0.00 0.00 0.00 92 1017.4
20221003094423 56 288 0.0 5.0 0.00 0.00 0.00 91 1017.4
20221003093523 56 350 0.0 3.0 0.00 0.00 0.00 91 1017.3
20221003091722 56 339 1.0 3.0 0.00 0.00 0.00 90 1017.2
20221003090823 56 314 1.0 4.0 0.00 0.00 0.00 90 1017.2
20221003085022 57 348 0.0 3.0 0.00 0.00 0.00 90 1017.1
20221003084121 57 310 1.0 5.0 0.00 0.00 0.00 90 1017.0
20221003083221 57 299 0.0 4.0 0.00 0.00 0.00 89 1017.0
20221003082322 57 295 1.0 3.0 0.00 0.00 0.00 89 1017.0
20221003081421 57 333 0.0 2.0 0.00 0.00 0.00 89 1017.1
20221003080521 58 316 0.0 3.0 0.00 0.00 0.00 88 1017.1
20221003075620 58 303 0.0 1.0 0.00 0.00 0.00 88 1017.1
20221003074721 58 304 0.0 2.0 0.00 0.00 0.00 87 1017.1
20221003073820 58 304 0.0 4.0 0.00 0.00 0.00 86 1017.1
20221003072919 59 303 0.0 1.0 0.00 0.00 0.00 85 1017.1
20221003072020 59 304 1.0 2.0 0.00 0.00 0.00 85 1017.3
20221003071119 60 319 1.0 3.0 0.00 0.00 0.00 84 1017.2
20221003070219 60 302 1.0 4.0 0.00 0.00 0.00 84 1017.2
20221003061719 61 333 2.0 6.0 0.00 0.00 0.00 83 1017.2
20221003060818 61 326 1.0 7.0 0.00 0.00 0.00 83 1017.2
20221003055918 61 315 1.0 7.0 0.00 0.00 0.00 83 1017.2
20221003055018 61 299 1.0 5.0 0.00 0.00 0.00 83 1017.2
20221003054117 61 309 1.0 5.0 0.00 0.00 0.00 83 1017.0
20221003053218 61 302 1.0 4.0 0.00 0.00 0.00 83 1017.2
20221003052317 62 318 1.0 4.0 0.00 0.00 0.00 82 1017.3
20221003051417 62 307 2.0 4.0 0.00 0.00 0.00 81 1017.2
20221003050517 62 309 2.0 6.0 0.00 0.00 0.00 81 1017.3
20221003045617 62 323 2.0 6.0 0.00 0.00 0.00 82 1017.2
20221003044716 62 320 1.0 4.0 0.00 0.00 0.00 81 1017.2
20221003043816 62 300 2.0 7.0 0.00 0.00 0.00 83 1017.2
20221003042916 61 294 0.0 4.0 0.00 0.00 0.00 84 1017.2
20221003042016 62 294 1.0 2.0 0.00 0.00 0.00 83 1017.2
20221003041115 62 329 1.0 5.0 0.00 0.00 0.00 82 1017.1
20221003040215 62 312 1.0 5.0 0.00 0.00 0.00 82 1017.0
20221003033514 63 319 1.0 5.0 0.00 0.00 0.00 78 1017.0
20221003032615 64 303 0.0 1.0 0.00 0.00 0.00 78 1017.0
20221003030814 65 307 2.0 5.0 0.00 0.00 0.00 74 1016.7
20221003025914 65 306 2.0 4.0 0.00 0.00 0.00 73 1016.5
20221003025013 65 297 2.0 6.0 0.00 0.00 0.00 73 1016.5
20221003024113 65 305 1.0 5.0 0.00 0.00 0.00 72 1016.4
20221003022313 65 295 1.0 5.0 0.00 0.00 0.00 72 1016.2
20221003021414 65 302 1.0 4.0 0.00 0.00 0.00 73 1016.1
20221003020512 65 298 1.0 5.0 0.00 0.00 0.00 74 1016.0
20221003015614 65 318 1.0 5.0 0.00 0.00 0.00 74 1015.9
20221003014715 66 330 1.0 2.0 0.00 0.00 0.00 74 1016.0
20221003013813 66 328 0.0 3.0 0.00 0.00 0.00 71 1016.0
20221003012913 67 312 0.0 2.0 0.00 0.00 0.00 69 1015.9